Flag for Australia Weather past 2 weeks in Melbourne, Victoria, Australia

Now
61 °F

Partly sunny.


Feels Like: 61 °F
Forecast: 50 / 66 °F
Wind: 18 mph from South

Location: Melbourne Airport

Current Time: Dec 25, 2014 at 9:16:54 PM

Latest Report: Dec 25, 2014 at 8:30 PM


Visibility: N/A

Pressure: 29.80 "Hg

Humidity: 72%

Dew point: 52 °F

Location of MelbourneLocation

Historic Weather in Melbourne — Graph

°F

Melbourne temperature yesterday

Maximum temperature yesterday: 70 °F (at 1:30 PM)
Minimum temperature yesterday: 50 °F (at 4:00 AM)
Average temperature yesterday: 62 °F

Past Weeks' High & Low Weather Summary

 TemperatureHumidityPressure
High91 °F (Dec 21, 4:00 PM)100% (Dec 11, 3:00 AM)30.15 "Hg (Dec 11, 3:00 AM)
Low48 °F (Dec 17, 4:30 AM)6% (Dec 16, 11:30 AM)29.30 "Hg (Dec 16, 2:30 PM)
Average65 °F64%29.86 "Hg
* Reported Dec 10 8:00 PM — Dec 25 8:00 PM, Melbourne, Weather by CustomWeather, © 2014

Note: Actual official high and low records may vary slightly from our data, if they occured in-between our weather recording intervals... More about our weather records

Advertising

Melbourne weather history for previous 24 hours

 ConditionsComfort  
Time TempWeatherWind HumidityBarometerVisibility
8:00 PM
Dec 25
63 °FPassing clouds.20 mph64%29.80 "HgN/A
7:30 PM64 °FPassing clouds.20 mph64%29.77 "HgN/A
7:00 PM66 °FPassing clouds.18 mph52%29.77 "HgN/A
6:30 PM68 °FSunny.20 mph49%29.74 "Hg10 mi
6:00 PM70 °FSunny.20 mph46%29.74 "Hg10 mi
5:30 PM70 °FSunny.15 mph43%29.74 "Hg10 mi
5:00 PM72 °FSunny.21 mph41%29.74 "Hg10 mi
4:30 PM73 °FSunny.16 mph38%29.74 "Hg10 mi
4:00 PM77 °FSunny.15 mph34%29.74 "Hg10 mi
3:30 PM75 °FSunny.13 mph39%29.74 "Hg10 mi
3:00 PM75 °FSunny.12 mph41%29.74 "Hg10 mi
2:00 PM75 °FSunny.20 mph44%29.74 "Hg10 mi
1:47 PM75 °FSunny.17 mph44%29.74 "Hg10 mi
1:30 PM73 °FSunny.15 mph41%29.74 "Hg10 mi
1:00 PM73 °FSunny.17 mph47%29.77 "Hg10 mi
12:30 PM73 °FScattered clouds.21 mph47%29.74 "HgN/A
12:00 PM75 °FPassing clouds.9 mph36%29.74 "HgN/A
11:30 AM73 °FPassing clouds.7 mph41%29.74 "HgN/A
11:00 AM72 °FPassing clouds.3 mph44%29.77 "HgN/A
10:30 AM70 °FPassing clouds.6 mph50%29.77 "HgN/A
10:00 AM68 °FPassing clouds.8 mph53%29.77 "HgN/A
9:30 AM66 °FPassing clouds.7 mph60%29.80 "HgN/A
9:00 AM64 °FScattered clouds.6 mph68%29.83 "HgN/A
8:30 AM63 °FScattered clouds.3 mph73%29.83 "HgN/A
8:00 AM61 °FScattered clouds.5 mph77%29.83 "HgN/A
7:30 AM57 °FPartly sunny.8 mph88%29.83 "HgN/A
7:00 AM55 °FPartly sunny.7 mph88%29.83 "HgN/A
6:30 AM54 °FPartly sunny.6 mph94%29.83 "HgN/A
6:00 AM52 °FPartly sunny.7 mph94%29.83 "HgN/A
5:30 AM52 °FPassing clouds.7 mph94%29.83 "HgN/A
5:00 AM54 °FPassing clouds.7 mph88%29.83 "HgN/A
4:30 AM54 °FClear.6 mph94%29.83 "Hg10 mi
4:00 AM54 °FClear.6 mph94%29.83 "Hg10 mi
3:30 AM54 °FClear.7 mph94%29.83 "Hg10 mi
3:00 AM55 °FPassing clouds.6 mph88%29.83 "HgN/A
2:30 AM55 °FPassing clouds.7 mph88%29.86 "HgN/A
2:00 AM55 °FPassing clouds.6 mph88%29.86 "HgN/A
1:00 AM57 °FPassing clouds.5 mph82%29.89 "HgN/A
12:30 AM57 °FPassing clouds.3 mph82%29.89 "HgN/A
12:00 AM57 °FPassing clouds.5 mph82%29.89 "HgN/A
11:30 PM
Dec 24
59 °FPassing clouds.7 mph77%29.92 "HgN/A
11:00 PM59 °FPassing clouds.6 mph77%29.92 "HgN/A
10:00 PM61 °FClear.8 mph72%29.92 "Hg10 mi
9:30 PM61 °FClear.10 mph72%29.92 "Hg10 mi
9:00 PM61 °FClear.10 mph72%29.92 "Hg10 mi
Weather by CustomWeather, © 2014

See weather overviewHow to use our weather pages